Location: Sears
(37.7625°N, 100.1060°W)
Time: 05:29:39
(UTC+00:00)

X-37B - Pass Details

Date: 01 August 2021
Orbit: 381 x 393 km, 45.0° (Epoch: 29 August)

Event Time Altitude Azimuth Distance (km) Brightness Sun altitude
Exits shadow 11:13:06 - 267° (W) 1,663 3.2 -6.4°
Reaches altitude 10° 11:13:48 10° 271° (W) 1,393 2.9 -6.2°
Maximum altitude 11:16:45 37° 341° (NNW) 608 1.7 -5.7°
Drops below altitude 10° 11:19:42 10° 51° (NE) 1,399 5.1 -5.2°
Sets 11:21:52 0° 60° (ENE) 2,255 7.5 -4.8°
